Tracking 35334 objects as of 13-Sep-2026
HD Live streaming from Space Station
objects crossing your sky now

STARLINK-37458

Track STARLINK-37458 now!
10-day predictions
STARLINK-37458 is classified as:


NORAD ID: 100033
Int'l Code: 2026-161F
Launch date: July 14, 2026
Source: United States (US)
Launch site: AIR FORCE EASTERN TEST RANGE (AFETR)
Your satellite tracking list
Your tracking list is empty




NASA's NSSDC Master Catalog

Two Line Element Set (TLE):
1 A0033U 26161F   26255.09931771  .00022904  00000-0  66545-3 0  9995
2 A0033  53.1611  36.7780 0001331  84.0859 276.0295 15.35403061  9321
Source of the keplerian elements: AFSPC